Home   Weather   Wiener Neustadt   Past weeks

Flag for Austria Past Weather in Wiener Neustadt, Lower Austria, Austria — Yesterday and Last 2 Weeks

Now
59 °F

Overcast.


Feels Like: 59 °F
Forecast: 55 / 70 °F
Wind: 6 mph from Northwest

Location: Eisenstadt

Current Time: Aug 20, 2017 at 8:25:51 am

Latest Report: Aug 20, 2017 at 7:00 am


Visibility: 6 mi

Pressure: 30.07 "Hg

Humidity: 83%

Dew Point: 54 °F

Location of Wiener NeustadtLocation

Past Weather in Wiener Neustadt — Graph

°F

Wiener Neustadt Temperature Yesterday

Maximum temperature yesterday: 78 °F (at 2:00 am)
Minimum temperature yesterday: 63 °F (at 12:00 pm)
Average temperature yesterday: 68 °F

High & Low Weather Summary for the Past Weeks

 TemperatureHumidityPressure
High92 °F (Aug 18, 3:00 pm)93% (Aug 8, 7:00 am)30.17 "Hg (Aug 8, 7:00 am)
Low59 °F (Aug 15, 6:00 am)31% (Aug 18, 3:00 pm)29.82 "Hg (Aug 11, 2:00 pm)
Average72 °F66%30.02 "Hg
* Reported Aug 5 6:00 am — Aug 20 6:00 am, Wiener Neustadt. Weather by CustomWeather, © 2017

Note: Actual official high and low records may vary slightly from our data, if they occured in-between our weather recording intervals... More about our weather records

Advertising

Wiener Neustadt Weather History for the Previous 24 Hours

Scroll right to see more
 ConditionsComfort  
Time TempWeatherWind HumidityBarometerVisibility
6:00 am
Sun, Aug 20
60 °FCool.6 mph84%30.06 "HgN/A
5:00 am60 °FLight rain. Overcast.8 mph85%30.06 "Hg6 mi
4:00 am60 °FLight rain. Overcast.6 mph87%30.07 "Hg6 mi
3:00 am60 °FFog.1 mph90%30.07 "HgN/A
2:00 am61 °FCool.2 mph86%30.07 "HgN/A
1:00 am61 °FCool.3 mph86%30.07 "HgN/A
12:00 am61 °FFog.6 mph85%30.08 "HgN/A
11:00 pm
Sat, Aug 19
63 °FOvercast.6 mph84%30.08 "Hg6 mi
10:00 pm63 °FMild.6 mph84%30.07 "HgN/A
9:00 pm64 °FMild.3 mph89%30.08 "HgN/A
8:00 pm64 °FDrizzle. Overcast.5 mph86%30.07 "Hg9 mi
7:00 pm64 °FOvercast.2 mph90%30.06 "Hg9 mi
6:00 pm65 °FMild.1 mph86%30.06 "HgN/A
5:00 pm65 °FOvercast.1 mph88%30.08 "Hg9 mi
4:00 pm64 °FFog.3 mph89%30.10 "HgN/A
3:00 pm64 °FFog.3 mph89%30.08 "HgN/A
2:00 pm64 °FOvercast.1 mph89%30.06 "Hg9 mi
1:00 pm64 °FMild.2 mph90%30.07 "HgN/A
12:00 pm63 °FSprinkles. Cloudy.8 mph89%30.09 "HgN/A
11:00 am65 °FLight rain. Overcast.5 mph78%30.07 "Hg9 mi
10:00 am69 °FMild.9 mph62%30.01 "HgN/A
9:00 am71 °FMild.10 mph60%30.00 "HgN/A
8:00 am71 °FOvercast.8 mph60%29.99 "Hg12 mi
Weather by CustomWeather, © 2017

See weather overviewHow to use our weather pages